When you browse on this site, cookies collect data to enhance your experience and personalize the content and advertising you see.
Visit our Privacy Policy to learn more. By continuing to use the site, you agree to this use of cookies and data.
  • In Spain
  • List of Countries
  • For 7 days
  • Water Temperature
  • Satellite Maps
  • Weather Map
  • Weather Widgets
  • user-avatar
    Login

    Hourly Weather Donec

    Today, 20 May, Monday

    Time Temperature Precipitation Wind Pressure Humidity
    00:00 +14°C° 0 mm 2 mps 744 mmHg 77%
    01:00 +14°C° 0 mm 2 mps 744 mmHg 78%
    02:00 +13°C° 0 mm 2 mps 744 mmHg 79%
    03:00 +13°C° 0 mm 2 mps 744 mmHg 79%
    04:00 +14°C° 0 mm 2 mps 744 mmHg 79%
    05:00 +14°C° 0 mm 1 mps 744 mmHg 79%
    06:00 +16°C° 0 mm 2 mps 744 mmHg 72%
    07:00 +18°C° 0 mm 2 mps 745 mmHg 65%
    08:00 +20°C° 0 mm 2 mps 745 mmHg 59%
    09:00 +22°C° 0 mm 3 mps 745 mmHg 53%
    10:00 +24°C° 0 mm 3 mps 745 mmHg 47%
    11:00 +25°C° 0 mm 4 mps 745 mmHg 41%
    12:00 +25°C° 0 mm 4 mps 745 mmHg 40%
    13:00 +25°C° 0 mm 4 mps 745 mmHg 40%
    14:00 +26°C° 0 mm 4 mps 745 mmHg 40%
    15:00 +25°C° 0 mm 3 mps 744 mmHg 43%
    16:00 +25°C° 0 mm 3 mps 744 mmHg 46%
    17:00 +25°C° 0 mm 3 mps 744 mmHg 49%
    18:00 +23°C° 0 mm 2 mps 744 mmHg 57%
    19:00 +20°C° 0 mm 2 mps 744 mmHg 64%
    20:00 +17°C° 0 mm 2 mps 744 mmHg 72%
    21:00 +17°C° 0 mm 2 mps 744 mmHg 75%
    22:00 +16°C° 0 mm 2 mps 744 mmHg 77%
    23:00 +15°C° 0 mm 2 mps 744 mmHg 80%

    Tomorrow, 21 May, Tuesday

    Time Temperature Precipitation Wind Pressure Humidity
    00:00 +14°C° 0 mm 2 mps 744 mmHg 82%
    01:00 +14°C° 0 mm 2 mps 744 mmHg 84%
    02:00 +13°C° 0 mm 2 mps 744 mmHg 86%
    03:00 +14°C° 0 mm 2 mps 744 mmHg 85%
    04:00 +14°C° 0 mm 2 mps 744 mmHg 85%
    05:00 +14°C° 0 mm 2 mps 744 mmHg 84%
    06:00 +16°C° 0 mm 3 mps 744 mmHg 76%
    07:00 +17°C° 0 mm 4 mps 744 mmHg 67%
    08:00 +19°C° 0 mm 4 mps 744 mmHg 59%
    09:00 +20°C° 0 mm 4 mps 743 mmHg 54%
    10:00 +21°C° 0 mm 5 mps 743 mmHg 49%
    11:00 +23°C° 0 mm 5 mps 743 mmHg 44%
    12:00 +23°C° 0 mm 5 mps 743 mmHg 45%
    13:00 +23°C° 0 mm 5 mps 743 mmHg 45%
    14:00 +25°C° 0 mm 4 mps 742 mmHg 46%
    15:00 +25°C° 0 mm 4 mps 742 mmHg 49%
    16:00 +23°C° 0 mm 4 mps 741 mmHg 52%
    17:00 +24°C° 0 mm 3 mps 741 mmHg 55%
    18:00 +21°C° 0 mm 3 mps 741 mmHg 63%
    19:00 +19°C° 0 mm 2 mps 741 mmHg 71%
    20:00 +17°C° 0 mm 2 mps 741 mmHg 79%
    21:00 +17°C° 0 mm 2 mps 741 mmHg 80%
    22:00 +16°C° 0 mm 2 mps 741 mmHg 81%
    23:00 +15°C° 0 mm 2 mps 741 mmHg 81%

    Day after tomorrow, 22 May, Wednesday

    Time Temperature Precipitation Wind Pressure Humidity
    00:00 +14°C° 0 mm 2 mps 740 mmHg 83%
    01:00 +14°C° 0 mm 2 mps 740 mmHg 85%
    02:00 +13°C° 0 mm 2 mps 740 mmHg 87%
    03:00 +13°C° 0 mm 2 mps 740 mmHg 88%
    04:00 +13°C° 0 mm 2 mps 739 mmHg 88%
    05:00 +13°C° 0 mm 2 mps 739 mmHg 89%
    06:00 +15°C° 0 mm 2 mps 739 mmHg 84%
    07:00 +17°C° 0 mm 2 mps 739 mmHg 78%
    08:00 +19°C° 0 mm 2 mps 739 mmHg 72%
    09:00 +20°C° 0 mm 2 mps 739 mmHg 69%
    10:00 +21°C° 0 mm 2 mps 738 mmHg 66%
    11:00 +24°C° 0 mm 2 mps 738 mmHg 63%
    12:00 +24°C° 0.1 mm 3 mps 738 mmHg 62%
    13:00 +25°C° 0.1 mm 3 mps 738 mmHg 60%
    14:00 +25°C° 0.1 mm 3 mps 738 mmHg 59%
    15:00 +25°C° 0 mm 3 mps 737 mmHg 60%
    16:00 +25°C° 0 mm 3 mps 737 mmHg 61%
    17:00 +25°C° 0 mm 2 mps 737 mmHg 61%
    18:00 +23°C° 0.1 mm 2 mps 737 mmHg 70%
    19:00 +20°C° 0.1 mm 2 mps 737 mmHg 78%
    20:00 +19°C° 0.1 mm 1 mps 737 mmHg 86%
    21:00 +19°C° 0 mm 1 mps 737 mmHg 88%
    22:00 +18°C° 0 mm 1 mps 737 mmHg 90%
    23:00 +16°C° 0 mm 1 mps 737 mmHg 92%

    23 May, Thursday

    Time Temperature Precipitation Wind Pressure Humidity
    00:00 +16°C° 0 mm 1 mps 737 mmHg 93%
    01:00 +15°C° 0 mm 1 mps 736 mmHg 94%
    02:00 +15°C° 0 mm 1 mps 736 mmHg 94%
    03:00 +15°C° 0 mm 1 mps 736 mmHg 94%
    04:00 +15°C° 0 mm 1 mps 736 mmHg 93%
    05:00 +15°C° 0 mm 1 mps 736 mmHg 92%
    06:00 +17°C° 0 mm 2 mps 736 mmHg 85%
    07:00 +19°C° 0 mm 2 mps 736 mmHg 78%
    08:00 +21°C° 0 mm 2 mps 736 mmHg 71%
    09:00 +23°C° 0 mm 2 mps 736 mmHg 65%
    10:00 +24°C° 0 mm 3 mps 736 mmHg 59%
    11:00 +25°C° 0 mm 3 mps 736 mmHg 53%
    12:00 +26°C° 0 mm 3 mps 736 mmHg 51%
    13:00 +26°C° 0 mm 3 mps 736 mmHg 49%
    14:00 +26°C° 0 mm 3 mps 736 mmHg 48%
    15:00 +26°C° 0.1 mm 3 mps 736 mmHg 51%
    16:00 +25°C° 0.1 mm 3 mps 736 mmHg 54%
    17:00 +25°C° 0.1 mm 2 mps 736 mmHg 57%
    18:00 +23°C° 0.1 mm 2 mps 736 mmHg 66%
    19:00 +21°C° 0.1 mm 1 mps 736 mmHg 75%
    20:00 +19°C° 0.1 mm 1 mps 736 mmHg 83%
    21:00 +16°C° 0 mm 0 mps 735 mmHg 85%
    22:00 +15°C° 0 mm 0 mps 735 mmHg 87%
    23:00 +15°C° 0 mm 0 mps 735 mmHg 89%

    24 May, Friday

    Time Temperature Precipitation Wind Pressure Humidity
    00:00 +14°C° 0 mm 0 mps 735 mmHg 89%
    01:00 +14°C° 0 mm 0 mps 735 mmHg 89%
    02:00 +14°C° 0 mm 0 mps 735 mmHg 90%
    03:00 +14°C° 0 mm 0 mps 735 mmHg 89%
    04:00 +14°C° 0 mm 0 mps 735 mmHg 88%
    05:00 +15°C° 0 mm 0 mps 735 mmHg 87%
    06:00 +16°C° 0 mm 0 mps 735 mmHg 82%
    07:00 +20°C° 0 mm 1 mps 735 mmHg 77%
    08:00 +21°C° 0 mm 1 mps 735 mmHg 72%
    09:00 +22°C° 0.7 mm 1 mps 735 mmHg 70%
    10:00 +23°C° 0.7 mm 2 mps 735 mmHg 69%
    11:00 +23°C° 0.7 mm 2 mps 735 mmHg 68%
    12:00 +24°C° 0.3 mm 1 mps 735 mmHg 63%
    13:00 +25°C° 0.3 mm 1 mps 735 mmHg 58%
    14:00 +24°C° 0.3 mm 0 mps 734 mmHg 52%
    15:00 +24°C° 0 mm 0 mps 734 mmHg 52%
    16:00 +24°C° 0 mm 0 mps 734 mmHg 52%
    17:00 +23°C° 0 mm 0 mps 734 mmHg 52%
    18:00 +23°C° 0.9 mm 1 mps 734 mmHg 64%
    19:00 +21°C° 0.9 mm 1 mps 734 mmHg 75%
    20:00 +18°C° 0.9 mm 1 mps 733 mmHg 87%
    21:00 +18°C° 0.4 mm 1 mps 733 mmHg 89%
    22:00 +16°C° 0.4 mm 1 mps 733 mmHg 91%
    23:00 +15°C° 0.4 mm 1 mps 733 mmHg 93%

    25 May, Saturday

    Time Temperature Precipitation Wind Pressure Humidity
    00:00 +15°C° 0.5 mm 1 mps 733 mmHg 94%
    01:00 +15°C° 0.5 mm 1 mps 733 mmHg 95%
    02:00 +14°C° 0.5 mm 1 mps 733 mmHg 96%
    03:00 +14°C° 0.2 mm 1 mps 733 mmHg 96%
    04:00 +15°C° 0.2 mm 1 mps 733 mmHg 96%
    05:00 +15°C° 0.2 mm 1 mps 733 mmHg 96%
    06:00 +16°C° 0.5 mm 1 mps 733 mmHg 93%
    07:00 +18°C° 0.5 mm 1 mps 733 mmHg 90%
    08:00 +20°C° 0.5 mm 1 mps 733 mmHg 88%
    09:00 +21°C° 1 mm 1 mps 733 mmHg 83%
    10:00 +21°C° 1 mm 2 mps 733 mmHg 79%
    11:00 +23°C° 1 mm 2 mps 733 mmHg 75%
    12:00 +21°C° 1.6 mm 2 mps 733 mmHg 77%
    13:00 +21°C° 1.6 mm 2 mps 733 mmHg 80%
    14:00 +20°C° 1.6 mm 2 mps 732 mmHg 83%
    15:00 +20°C° 1 mm 2 mps 732 mmHg 84%
    16:00 +19°C° 1 mm 2 mps 732 mmHg 86%
    17:00 +19°C° 1 mm 3 mps 732 mmHg 87%
    18:00 +18°C° 0.9 mm 3 mps 732 mmHg 88%
    19:00 +17°C° 0.9 mm 3 mps 732 mmHg 90%
    20:00 +17°C° 0.9 mm 3 mps 732 mmHg 91%
    21:00 +16°C° 0.1 mm 3 mps 732 mmHg 93%
    22:00 +16°C° 0.1 mm 3 mps 732 mmHg 95%
    23:00 +14°C° 0.1 mm 3 mps 732 mmHg 96%
    Show more